Track NAVSTAR 60 (USA 196) now! NAVSTAR 60 (USA 196) is classified as:
1 32260U 07047A 21019.35950579 .00000046 00000-0 00000-0 0 9997 2 32260 53.2134 161.8461 0129383 54.8554 306.3177 2.00547693 97242